[[{"header":{"parameterUnit":"m.s-1","parameterCategory":1,"la1":30.2991,"la2":30.254,"lo1":-89.0895,"lo2":-89.0444,"dy":0.0017,"dx":0.0017,"nx":28,"ny":28,"refTime":"2025-04-08T03:00:00:Z","depth":0,"parameterNumber":2,"parameterNumberName":"U-component_of_WINDS"},"data":[0,0,0,0,0,0,0,0,0,0,0,0,0,0,0,0,0,0,0,0,0,0,0,0,0,0,0,0,0,0,0,0,0,0,0,0,0,0,0,0,0,0,0,0,0,0,0,0,0,0,0,0,0,0,0,0,0,0,3.3535,3.3535,0,3.3533,3.3533,3.3533,3.3475,3.3473,3.3472,3.347,3.3468,3.347,3.3471,0,0,0,0,0,0,0,0,0,0,0,0,0,3.3488,3.3489,3.3535,3.3535,3.3535,3.3533,3.3533,3.3533,3.3475,3.3473,3.3471,3.3469,3.3468,3.3469,3.3471,0,0,0,0,0,0,0,0,0,0,0,0,0,3.35,3.349,3.3535,3.3506,3.3503,3.3533,3.3533,3.3533,3.3475,3.3473,3.3471,3.3469,3.3467,3.3469,3.3471,3.3529,0,0,3.3478,3.3478,0,0,0,0,0,0,0,0,3.3499,3.3501,3.351,3.3508,3.3505,3.3502,3.3516,3.3532,3.3476,3.3486,3.347,3.3468,3.3481,3.3482,3.3487,3.3529,3.3529,3.3478,3.3479,3.348,3.348,0,0,0,0,0,0,0,3.3498,3.3501,3.3534,3.351,3.3507,3.3493,3.3492,3.3519,3.3496,3.3485,3.3481,3.3481,3.3479,3.3485,3.3486,3.3529,3.3478,3.3479,3.3481,3.3482,3.3618,3.362,0,0,0,0,0,0,3.3501,3.3501,3.3534,3.3534,3.3496,3.3495,3.3494,3.3505,3.3496,3.3492,3.3483,3.3478,3.3482,3.3484,3.3486,3.3552,3.348,3.3482,3.3483,3.3616,3.3618,3.3621,0,0,0,0,0,0,3.3501,3.3505,3.3534,3.3516,3.3519,3.3498,3.3511,3.3506,3.3511,3.3495,3.349,3.3493,3.3481,3.3483,3.3519,3.3551,3.3483,3.3485,3.3613,3.3616,3.362,3.3684,0,0,0,0,0,0,3.35,3.3505,3.3527,3.3517,3.352,3.3567,3.3513,3.3508,3.3515,3.3509,3.3502,3.3499,3.3479,3.3516,3.3521,3.3552,3.3486,3.361,3.3614,3.3619,3.3679,3.369,3.3699,0,0,0,0,0,3.3498,3.3545,3.3528,3.3533,3.3547,3.3569,3.3571,3.3547,3.3518,3.3539,3.3529,3.3499,3.3547,3.352,3.3525,3.3558,3.3607,3.3613,3.3618,3.3675,3.3688,3.3699,0,0,0,0,0,0,3.3559,3.3544,3.3524,3.357,3.3571,3.3559,3.3585,3.3561,3.3571,3.3565,3.3535,3.3534,3.3574,3.357,3.354,3.3613,3.3572,3.3579,3.3614,3.3626,3.3635,3.3634,3.3488,0,0,0,0,0,3.3578,3.3598,3.3583,3.3625,3.3626,3.3606,3.3615,3.3597,3.3597,3.3597,3.3589,3.359,3.3605,3.3615,3.3629,3.3679,3.3676,3.3704,3.3714,3.3722,3.3728,3.3753,3.3764,3.3639,3.3639,3.3639,0,0,3.3617,3.3611,3.3625,3.3637,3.3636,3.3656,3.3607,3.3631,3.3645,3.36,3.3633,3.3627,3.3627,3.367,3.3688,3.3668,3.3762,3.3729,3.3736,3.3737,3.3759,3.3771,3.3782,3.3642,3.3642,3.3641,0,0,3.3698,3.3696,3.3729,3.373,3.3728,3.3715,3.3723,3.3715,3.3709,3.3742,3.3708,3.3725,3.3753,3.3753,3.3757,3.3839,3.3811,3.3844,3.3894,3.3919,3.3929,3.3937,3.3965,3.3975,3.385,3.385,3.385,0,3.3746,3.3775,3.375,3.3776,3.3781,3.3742,3.3776,3.3777,3.3781,3.3785,3.3762,3.3795,3.3792,3.3834,3.3854,3.3859,3.3867,3.3843,3.3929,3.3938,3.3945,3.3971,3.3982,3.3854,3.3854,3.3853,3.3853,0,3.3834,3.3855,3.3882,3.3886,3.3895,3.3925,3.3904,3.3916,3.3898,3.3887,3.392,3.3915,3.3926,3.3935,3.3917,3.3975,3.3961,3.3935,3.3893,3.3962,3.3985,3.3995,3.3859,3.3858,3.3857,3.3856,0,0,3.3951,3.3941,3.3951,3.3952,3.3948,3.3964,3.3992,3.4003,3.4013,3.4017,3.4039,3.4063,3.4038,3.4043,3.4025,3.4047,3.411,3.4017,3.4017,3.4033,3.4171,3.4189,3.4201,3.4093,3.4095,3.4097,3.417,0,3.4027,3.4073,3.4052,3.4101,3.4119,3.4083,3.4107,3.4107,3.4098,3.4112,3.4102,3.4119,3.4086,3.4088,3.4109,3.4098,3.4137,3.4093,3.4112,3.4113,3.411,3.4214,3.4233,3.4303,3.418,3.4181,3.4182,0,3.4122,3.4129,3.418,3.4172,3.4179,3.4201,3.4208,3.4223,3.4223,3.4214,3.422,3.4197,3.4224,3.4184,3.422,3.419,3.4197,3.4194,3.4196,3.4194,3.415,3.4213,3.4324,3.4334,3.4197,3.4196,3.4195,0,3.4199,3.4223,3.4255,3.4257,3.425,3.4266,3.4264,3.4261,3.4269,3.4276,3.428,3.4291,3.4296,3.4305,3.4285,3.4259,3.4323,3.4282,3.4316,3.4316,3.4329,3.4328,3.444,3.4338,3.4338,3.4338,3.4337,0,3.4285,3.4317,3.429,3.4309,3.4344,3.4319,3.4354,3.4348,3.4346,3.4364,3.4335,3.4352,3.4326,3.4341,3.4327,3.4357,3.4361,3.4354,3.4349,3.4355,3.4355,3.4357,3.4351,3.434,3.434,3.4339,3.4339,0,3.4376,3.436,3.4392,3.4383,3.4381,3.4407,3.4398,3.4416,3.4406,3.4429,3.4433,3.4416,3.4432,3.4414,3.4429,3.4419,3.446,3.4449,3.4459,3.4455,3.4489,3.4485,3.4604,3.4618,3.4509,3.451,3.4511,0,3.4431,3.4454,3.4447,3.4457,3.4456,3.4472,3.448,3.4457,3.4466,3.4468,3.4485,3.4499,3.4508,3.4535,3.4524,3.4535,3.4523,3.4565,3.4525,3.4529,3.4521,3.4519,3.452,3.4572,3.4573,3.4574,3.4575,0,3.4528,3.4519,3.4531,3.454,3.4549,3.4556,3.4559,3.4569,3.4546,3.4557,3.4573,3.4581,3.4596,3.4609,3.4617,3.4614,3.459,3.4588,3.4596,3.4601,3.4605,3.46,3.4479,3.4585,3.4584,3.4583,3.4582,3.4582,3.4601,3.4619,3.4617,3.4631,3.4632,3.4636,3.4652,3.4643,3.4656,3.4666,3.4652,3.4672,3.4671,3.4679,3.4679,3.4694,3.4676,3.4688,3.4691,3.4694,3.4697,3.4605,3.4696,3.4696,3.4695,3.4695,3.4695,0,3.4695,3.4692,3.4705,3.4711,3.4722,3.47,3.4703,3.4713,3.473,3.4732,3.4741,3.4759,3.4772,3.4763,3.4774,3.4787,3.4776,3.4791,3.4788,3.4787,3.4714,3.4705,3.4799,3.4799,3.4799,3.4799,3.4799,3.4799,3.4745,3.4774,3.4765,3.4795,3.4791,3.4809,3.4813,3.4817,3.4817,3.4838,3.4849,3.4843,3.484,3.485,3.4861,3.4858,3.4862,3.488,3.4872,3.4803,3.4793,3.4783,3.4774,3.4881,3.4882,3.4944,3.4945,3.4945]},{"header":{"parameterUnit":"m.s-1","parameterCategory":1,"la1":30.2991,"la2":30.254,"lo1":-89.0895,"lo2":-89.0444,"dy":0.0017,"dx":0.0017,"nx":28,"ny":28,"refTime":"2025-04-08T03:00:00:Z","depth":0,"parameterNumber":3,"parameterNumberName":"V-component_of_WINDS"},"data":[0,0,0,0,0,0,0,0,0,0,0,0,0,0,0,0,0,0,0,0,0,0,0,0,0,0,0,0,0,0,0,0,0,0,0,0,0,0,0,0,0,0,0,0,0,0,0,0,0,0,0,0,0,0,0,0,0,0,-3.6102,-3.6104,0,-3.6317,-3.632,-3.6322,-3.6286,-3.6282,-3.6278,-3.6275,-3.6499,-3.6508,-3.6517,0,0,0,0,0,0,0,0,0,0,0,0,0,-3.5662,-3.567,-3.6101,-3.6104,-3.6107,-3.6317,-3.632,-3.6323,-3.6286,-3.6282,-3.6277,-3.6273,-3.6496,-3.6507,-3.6518,0,0,0,0,0,0,0,0,0,0,0,0,0,-3.5863,-3.5673,-3.6101,-3.6114,-3.6117,-3.6316,-3.632,-3.6323,-3.6287,-3.6282,-3.6276,-3.6271,-3.6492,-3.6506,-3.652,-3.672,0,0,-3.6563,-3.6569,0,0,0,0,0,0,0,0,-3.5851,-3.5879,-3.6109,-3.6113,-3.6117,-3.6269,-3.6247,-3.6457,-3.6289,-3.6223,-3.6275,-3.6268,-3.6427,-3.6446,-3.6499,-3.6731,-3.674,-3.6564,-3.6573,-3.6579,-3.6583,0,0,0,0,0,0,0,-3.5837,-3.5869,-3.6187,-3.6113,-3.6118,-3.611,-3.6132,-3.6286,-3.6354,-3.6228,-3.6226,-3.6252,-3.6428,-3.6485,-3.6504,-3.6744,-3.6564,-3.6577,-3.6585,-3.6591,-3.7152,-3.7158,0,0,0,0,0,0,-3.5819,-3.5858,-3.618,-3.6193,-3.5968,-3.6123,-3.6147,-3.6226,-3.6352,-3.6366,-3.6256,-3.6249,-3.6464,-3.6488,-3.6512,-3.6756,-3.6579,-3.6592,-3.66,-3.7146,-3.7154,-3.7161,0,0,0,0,0,0,-3.581,-3.5848,-3.6171,-3.6025,-3.6066,-3.6136,-3.6224,-3.6233,-3.629,-3.6374,-3.6386,-3.6302,-3.646,-3.6492,-3.6669,-3.6763,-3.6599,-3.6612,-3.7139,-3.7148,-3.7157,-3.7246,0,0,0,0,0,0,-3.5797,-3.5845,-3.5921,-3.6027,-3.6074,-3.6324,-3.623,-3.6241,-3.6315,-3.6307,-3.642,-3.6433,-3.6458,-3.6648,-3.6683,-3.678,-3.6623,-3.713,-3.7143,-3.7154,-3.7235,-3.7257,-3.7276,0,0,0,0,0,-3.5782,-3.5938,-3.5925,-3.5964,-3.617,-3.6329,-3.6356,-3.6381,-3.6322,-3.64,-3.6454,-3.643,-3.6747,-3.6666,-3.6706,-3.6808,-3.7125,-3.7139,-3.7153,-3.7226,-3.7253,-3.7276,0,0,0,0,0,0,-3.5842,-3.5952,-3.5939,-3.6134,-3.6223,-3.6323,-3.6422,-3.6409,-3.6517,-3.6506,-3.6533,-3.6559,-3.6739,-3.6791,-3.6699,-3.701,-3.6928,-3.6951,-3.6969,-3.6996,-3.7016,-3.7001,-3.6634,0,0,0,0,0,-3.5878,-3.5997,-3.6087,-3.625,-3.6295,-3.6351,-3.6421,-3.6433,-3.6526,-3.6564,-3.663,-3.6723,-3.6843,-3.6922,-3.7038,-3.7242,-3.7267,-3.7332,-3.7353,-3.7369,-3.7389,-3.7503,-3.7533,-3.7208,-3.7208,-3.7208,0,0,-3.5954,-3.6028,-3.6102,-3.6264,-3.6334,-3.6459,-3.6383,-3.6517,-3.661,-3.6584,-3.6756,-3.6808,-3.6913,-3.7105,-3.7192,-3.7154,-3.7485,-3.7388,-3.74,-3.7412,-3.7521,-3.7551,-3.7579,-3.7218,-3.7216,-3.7214,0,0,-3.6155,-3.6223,-3.6367,-3.6439,-3.6545,-3.6581,-3.6616,-3.6719,-3.6752,-3.6924,-3.6908,-3.7019,-3.7226,-3.7302,-3.7368,-3.7599,-3.7581,-3.7635,-3.7745,-3.7855,-3.7881,-3.7904,-3.7988,-3.8017,-3.7655,-3.7655,-3.7655,0,-3.6236,-3.6422,-3.6443,-3.658,-3.6652,-3.6634,-3.6781,-3.6849,-3.6989,-3.704,-3.6994,-3.7254,-3.7323,-3.7533,-3.759,-3.7643,-3.7685,-3.7623,-3.7875,-3.7898,-3.792,-3.8,-3.8032,-3.7661,-3.766,-3.766,-3.7659,0,-3.6517,-3.6645,-3.6749,-3.6883,-3.6967,-3.7109,-3.7153,-3.7236,-3.724,-3.7281,-3.7457,-3.754,-3.7672,-3.7723,-3.7728,-3.7934,-3.7907,-3.7868,-3.7787,-3.7957,-3.8033,-3.8063,-3.767,-3.7667,-3.7666,-3.7664,0,0,-3.6763,-3.6907,-3.6945,-3.7006,-3.7123,-3.7224,-3.7364,-3.7493,-3.7564,-3.7661,-3.7781,-3.7956,-3.7921,-3.7996,-3.801,-3.8106,-3.8286,-3.8055,-3.8058,-3.8097,-3.852,-3.855,-3.8585,-3.8274,-3.828,-3.8285,-3.8511,0,-3.6977,-3.7224,-3.7248,-3.747,-3.7591,-3.7575,-3.7698,-3.7783,-3.7826,-3.7935,-3.7982,-3.8106,-3.8049,-3.8095,-3.8189,-3.8244,-3.8371,-3.8227,-3.8388,-3.8393,-3.8363,-3.8624,-3.8656,-3.8866,-3.8541,-3.8546,-3.855,0,-3.726,-3.7364,-3.7598,-3.7698,-3.7749,-3.7859,-3.798,-3.8084,-3.8181,-3.8205,-3.8288,-3.829,-3.8436,-3.8348,-3.8551,-3.8453,-3.852,-3.8557,-3.8565,-3.8583,-3.8483,-3.865,-3.8934,-3.8966,-3.8597,-3.8593,-3.8589,0,-3.7418,-3.7617,-3.7783,-3.7835,-3.7956,-3.8034,-3.8088,-3.8179,-3.8256,-3.8361,-3.8411,-3.8533,-3.86,-3.8694,-3.8729,-3.8661,-3.8932,-3.8845,-3.8957,-3.8957,-3.9016,-3.9012,-3.9316,-3.9057,-3.9056,-3.9055,-3.9055,0,-3.7655,-3.7799,-3.7856,-3.7958,-3.812,-3.8146,-3.8306,-3.8356,-3.8438,-3.8551,-3.8544,-3.8651,-3.8689,-3.8803,-3.8831,-3.8996,-3.9026,-3.9051,-3.9057,-3.9052,-3.905,-3.9098,-3.9085,-3.9064,-3.9062,-3.906,-3.9059,0,-3.786,-3.7903,-3.8084,-3.8183,-3.8211,-3.8326,-3.8412,-3.8512,-3.8552,-3.8695,-3.873,-3.8795,-3.8928,-3.8971,-3.9132,-3.9151,-3.9344,-3.9337,-3.9312,-3.9313,-3.9423,-3.9413,-3.977,-3.9819,-3.9525,-3.9528,-3.953,0,-3.8009,-3.812,-3.8231,-3.8305,-3.8362,-3.8483,-3.856,-3.859,-3.8672,-3.8791,-3.8877,-3.9008,-3.9115,-3.9329,-3.9391,-3.9515,-3.9511,-3.9628,-3.953,-3.9523,-3.9515,-3.9509,-3.9521,-3.9647,-3.965,-3.9652,-3.9654,0,-3.827,-3.8286,-3.8397,-3.8517,-3.8609,-3.8705,-3.8798,-3.886,-3.8904,-3.8996,-3.9131,-3.9214,-3.9378,-3.951,-3.9636,-3.9693,-3.9683,-3.9684,-3.9717,-3.9715,-3.9696,-3.971,-3.9364,-3.9676,-3.9674,-3.9673,-3.9671,-3.9671,-3.8454,-3.8551,-3.8645,-3.877,-3.8842,-3.8929,-3.9027,-3.908,-3.9193,-3.9329,-3.934,-3.9487,-3.9582,-3.975,-3.9813,-3.993,-3.9897,-3.9944,-3.9956,-3.9968,-3.9977,-3.9676,-3.9953,-3.9952,-3.9951,-3.9951,-3.9951,0,-3.8716,-3.8775,-3.8889,-3.9018,-3.9117,-3.9096,-3.9197,-3.9282,-3.9411,-3.95,-3.9605,-3.9762,-3.9889,-3.9961,-4.0089,-4.0169,-4.0167,-4.0201,-4.0197,-4.0211,-3.9998,-3.9958,-4.0201,-4.0201,-4.0201,-4.0201,-4.02,-4.02,-3.8864,-3.9029,-3.9056,-3.9258,-3.9316,-3.9459,-3.9519,-3.96,-3.9671,-3.9846,-3.9952,-3.9997,-4.008,-4.0214,-4.0331,-4.0349,-4.0397,-4.0435,-4.045,-4.0251,-4.0225,-4.0201,-4.0163,-4.0445,-4.0445,-4.0653,-4.0655,-4.0656]}]]